Wind_Speed
28 27 26 24 23 21 20 18 17 15 14 13 11 9 8 8 7 7 8 8 9 10 11 12 13 14 15 17 18 19 21 21 21 21 23 25 27 30 32 35 38 40 42 45 47 48 47 44 40 37 35 32 29 25 22 18 15 10 6 5 6 5 5 4 5 8 9 6 3 5 5 5 5 5 6 6 6 6 6 5 6 6 5 4 4 4 4 5
31 29 27 26 25 24 22 20 19 17 16 14 13 12 10 9 9 9 8 9 10 10 12 12 13 14 15 16 17 19 20 22 22 21 21 23 25 28 30 33 36 38 41 43 45 47 47 45 42 38 36 33 30 27 24 21 18 13 8 5 5 5 4 5 5 6 7 6 3 4 5 4 3 3 4 6 6 7 8 7 7 7 6 6 5 4 4 4
33 31 29 28 27 26 24 22 21 19 18 16 15 14 12 11 10 10 10 10 10 11 12 13 13 14 15 16 17 18 20 22 23 22 21 22 24 26 28 31 34 37 39 41 43 46 47 46 44 40 37 35 33 29 26 24 20 16 11 8 6 6 5 6 6 5 4 4 2 2 3 3 2 2 2 4 6 8 8 7 7 7 7 7 7 6 5 5
35 33 31 30 29 28 26 25 23 21 20 18 17 16 15 13 12 11 11 11 11 12 13 14 14 14 16 16 18 19 19 21 23 22 21 21 22 24 27 30 32 35 38 40 42 44 46 46 45 42 39 37 35 32 29 27 24 19 15 12 11 9 8 6 4 5 5 3 2 3 2 1 2 2 2 3 5 7 7 6 5 5 5 5 7 8 7 6
38 35 34 33 31 30 29 27 25 23 22 20 19 18 17 15 14 13 13 13 12 13 14 14 14 15 16 17 18 19 20 21 23 23 21 20 21 23 25 28 31 34 36 39 40 43 45 46 46 44 41 39 36 34 33 31 27 22 19 17 15 13 10 8 6 6 6 6 5 5 4 2 0 2 1 0 1 3 5 4 3 4 5 5 6 8 8 8
41 38 36 35 33 32 31 29 27 25 24 22 21 20 19 18 16 15 15 14 14 14 14 15 15 15 16 16 17 18 19 21 22 23 22 21 21 22 24 27 30 32 35 37 39 41 44 45 46 46 43 40 38 37 35 33 29 25 22 19 17 14 12 10 9 7 7 7 7 7 7 6 3 1 0 2 2 1 3 5 5 6 6 5 5 7 8 9
43 41 39 37 36 34 33 31 29 27 26 24 23 22 21 20 18 17 17 16 15 15 15 16 16 16 16 17 17 18 19 20 22 23 22 21 21 22 23 26 28 31 33 36 38 40 42 45 46 46 44 42 40 39 37 34 31 27 24 20 17 14 13 13 11 9 7 8 9 9 9 8 6 4 2 3 2 1 3 5 6 7 6 5 5 7 9 10
46 44 42 40 38 37 35 33 32 29 28 26 25 24 23 22 21 19 18 17 16 16 16 17 17 17 16 17 17 18 19 20 22 23 23 22 21 21 23 25 27 30 32 34 37 38 40 43 45 46 46 45 42 40 39 36 33 29 24 20 17 15 14 14 13 10 9 9 10 10 11 10 9 7 4 3 2 2 4 7 7 7 7 6 6 7 9 10
48 47 45 43 41 39 37 36 34 32 30 29 27 26 25 24 23 22 20 19 18 17 17 18 18 18 17 18 18 18 19 20 21 23 23 22 21 21 22 24 26 29 31 34 35 37 40 42 45 47 47 47 44 42 41 39 35 31 25 21 18 15 14 15 14 11 11 11 10 10 11 11 10 10 8 5 3 4 6 8 9 9 9 9 8 9 9 10
50 49 48 46 44 42 40 38 36 34 32 31 29 28 27 26 25 24 22 21 20 19 18 19 19 19 18 18 18 18 19 19 21 22 23 23 22 22 22 24 26 28 30 32 34 36 39 41 44 46 48 48 46 44 43 41 37 31 26 21 18 16 14 14 13 12 12 11 10 9 10 10 10 11 10 7 5 6 7 9 11 11 11 11 10 10 10 10
51 51 50 48 46 44 42 40 38 36 35 33 32 30 29 28 27 26 24 23 21 20 19 20 20 20 19 19 18 18 19 19 20 22 22 23 23 22 23 23 25 27 29 31 33 35 37 40 42 45 47 48 47 46 44 42 38 32 27 21 18 16 14 13 12 11 12 11 8 7 8 9 10 11 11 9 8 7 9 10 11 12 13 14 13 12 11 12
53 52 51 50 49 47 45 43 41 39 37 36 34 32 31 30 29 28 26 25 23 22 21 20 21 20 20 19 19 18 19 19 20 21 22 22 23 22 23 23 25 27 28 30 33 34 36 39 41 44 46 48 48 47 45 43 39 34 29 23 19 16 15 13 11 10 11 10 7 6 5 7 9 9 10 10 9 9 10 11 12 13 14 15 16 14 13 14
55 54 53 52 51 49 47 45 43 41 39 38 36 34 33 32 31 30 28 27 25 23 22 21 21 21 20 19 19 19 19 19 20 21 22 22 22 22 23 23 24 26 27 30 32 34 35 38 40 42 45 48 49 48 46 43 40 36 31 25 20 16 14 13 11 9 10 10 8 6 5 5 6 7 8 9 10 11 12 13 13 14 14 15 16 16 16 16
57 55 54 54 53 51 49 47 45 43 42 40 38 37 35 34 33 31 30 29 27 25 23 22 22 21 20 19 19 19 19 19 20 21 22 22 22 22 23 23 24 25 27 29 31 33 35 37 38 40 44 47 49 48 47 44 41 37 32 27 21 17 14 13 11 10 10 9 8 6 5 5 4 5 6 8 9 11 12 14 15 16 16 16 16 17 18 18
59 57 56 55 54 53 51 49 47 45 44 42 40 39 37 36 34 33 32 31 29 27 25 23 22 22 21 20 20 20 20 20 20 21 22 22 22 22 23 23 24 25 26 28 30 32 33 35 36 39 42 46 48 48 47 45 42 38 33 28 23 18 15 13 11 11 10 9 8 7 5 5 4 5 5 7 9 11 13 14 16 17 17 16 16 17 18 19
61 59 57 56 55 54 53 51 49 47 46 44 42 41 39 37 36 35 34 32 30 28 26 24 23 22 21 20 20 20 20 20 20 21 22 22 22 22 23 23 24 24 25 27 29 30 31 33 35 38 41 44 47 48 48 46 43 39 35 29 25 21 17 14 13 12 13 12 11 10 8 7 6 6 5 6 8 10 12 14 16 16 16 16 16 17 19 20
63 61 59 57 56 55 54 53 51 49 47 46 44 42 41 39 38 36 35 34 32 29 27 25 24 23 22 21 21 21 21 21 20 21 22 22 22 22 22 23 23 24 25 27 28 29 30 32 34 36 39 42 45 47 48 47 44 40 36 31 26 22 17 14 13 13 12 13 14 13 12 11 9 9 7 7 8 9 11 13 14 15 15 15 16 17 19 19
64 63 61 59 57 56 55 54 52 51 49 47 45 44 42 41 39 37 36 35 33 31 29 27 25 24 23 22 22 22 21 21 21 21 22 23 23 22 22 22 23 24 25 26 28 28 29 31 33 35 37 40 42 45 47 47 45 41 37 31 26 22 17 12 10 10 9 10 11 12 12 11 11 10 9 8 8 9 11 13 14 15 15 15 15 17 18 18
64 64 63 61 59 57 56 55 54 53 51 49 47 46 44 42 40 39 38 36 34 32 30 28 26 25 24 23 23 22 22 22 22 21 22 23 23 22 22 22 23 24 25 26 27 28 29 31 32 34 35 37 40 43 45 47 46 42 38 33 27 23 18 12 8 7 7 7 8 9 9 9 10 10 10 9 9 10 11 13 14 15 16 15 16 17 18 19
65 65 65 63 61 59 57 56 55 54 52 50 48 47 45 43 42 40 39 37 35 33 31 29 28 26 25 24 23 23 22 22 22 22 22 23 23 23 22 22 23 24 25 26 27 27 29 30 31 32 34 35 38 41 44 46 45 43 40 35 28 23 18 13 9 7 6 6 6 6 6 6 7 9 10 10 10 10 12 13 15 16 17 17 17 18 20 20
66 66 66 65 62 60 59 58 56 55 53 51 50 48 46 45 43 42 40 39 37 35 32 30 29 27 26 25 24 23 23 23 22 22 22 23 23 23 22 22 23 24 25 26 27 27 28 29 30 32 32 33 35 38 42 44 45 43 41 36 30 24 19 14 10 9 7 6 5 5 6 5 6 7 9 11 10 11 12 14 15 16 17 17 18 19 20 20
66 67 67 66 64 62 60 59 57 56 54 53 51 49 48 46 45 43 41 40 37 35 33 31 29 28 27 26 25 24 23 23 23 22 23 24 23 22 22 22 23 24 25 26 26 26 27 28 29 31 32 32 34 36 40 43 43 43 41 37 31 25 20 14 12 10 9 9 7 6 7 7 7 7 9 10 11 11 13 14 15 16 17 17 18 18 19 18
66 67 67 67 66 64 62 60 58 57 55 54 52 51 49 48 46 44 42 41 38 35 34 32 31 30 29 27 26 25 24 23 23 23 23 24 24 22 22 22 23 24 25 25 26 26 26 27 28 30 31 31 32 35 38 41 42 42 41 37 32 26 21 15 13 11 10 11 10 9 10 10 10 10 10 11 12 12 14 15 16 17 17 17 18 18 17 16
67 68 68 68 67 66 63 61 59 58 56 55 53 52 50 49 48 45 43 42 39 37 35 34 33 31 30 28 27 26 25 24 23 23 24 25 24 23 22 22 23 24 24 25 26 26 26 26 27 29 30 30 31 33 36 39 41 42 41 38 33 27 22 17 14 11 10 11 13 12 11 12 12 12 13 13 14 13 15 17 18 19 18 18 17 17 16 15
67 68 69 69 68 67 64 62 60 59 57 56 55 53 52 51 49 46 44 42 40 38 37 35 34 33 31 30 28 27 26 25 24 25 25 25 24 23 23 23 23 24 25 25 26 26 26 26 27 28 29 29 30 32 35 38 40 41 40 38 35 29 24 19 15 13 10 11 14 13 12 12 14 15 15 16 16 16 17 19 20 21 20 19 17 16 15 16
67 68 69 69 69 68 65 63 61 60 58 57 56 54 53 52 50 47 45 44 42 40 38 37 36 34 32 31 29 28 27 26 25 25 26 26 24 23 23 24 24 25 25 25 26 27 27 28 28 28 29 29 30 33 35 37 39 40 40 38 35 31 25 21 18 15 12 12 14 16 15 14 15 17 17 17 18 18 18 19 21 21 21 20 18 16 16 17
68 68 69 70 70 69 66 64 62 61 59 58 57 55 54 53 51 48 47 45 43 41 40 38 37 36 34 32 31 29 28 27 26 26 27 26 26 25 24 25 25 26 26 26 26 27 28 29 29 29 29 30 31 33 35 37 38 38 39 37 35 32 27 22 19 18 16 14 16 18 18 17 17 18 18 18 19 19 20 20 21 21 21 20 18 17 16 17
69 69 70 70 70 70 67 65 63 61 60 59 58 57 55 54 52 50 48 47 45 43 41 40 38 37 35 33 32 30 29 29 28 27 27 27 26 26 26 26 27 27 27 27 28 28 29 29 30 30 30 30 32 33 34 37 38 38 38 37 35 32 28 24 20 19 17 16 17 19 20 20 20 20 20 20 20 21 21 21 22 22 21 21 20 18 17 18
70 70 70 71 71 71 69 66 64 63 61 60 59 58 56 55 53 52 50 49 47 45 43 41 40 39 37 35 34 32 31 30 29 29 28 28 27 27 27 27 27 28 29 29 29 29 30 30 30 30 30 30 32 33 35 37 38 38 37 36 34 32 30 26 23 20 17 16 17 20 22 22 22 22 21 21 22 22 23 23 23 23 23 22 22 21 20 21
71 71 71 71 72 71 70 67 65 64 63 62 60 59 58 57 56 54 53 51 49 47 45 43 42 40 39 37 35 34 34 32 30 30 30 29 29 28 28 29 29 29 29 30 29 30 31 31 31 30 30 31 32 34 36 38 39 39 37 35 34 32 30 28 25 22 18 15 17 21 23 23 24 24 23 22 22 23 24 24 24 24 25 25 25 25 24 25
73 72 72 72 72 72 71 69 67 65 64 63 62 61 59 59 58 57 56 54 52 50 47 45 43 42 41 39 36 36 36 33 31 31 31 30 30 30 30 30 30 30 30 31 30 30 31 32 31 30 31 32 33 35 36 38 39 40 38 35 33 32 30 29 27 24 20 17 18 21 23 25 26 26 25 23 23 24 25 26 26 26 27 27 28 27 27 28
74 73 73 73 73 73 72 70 69 67 66 64 63 62 61 61 61 60 58 57 54 52 49 46 45 44 42 40 39 39 38 36 33 32 32 32 32 31 31 32 32 31 31 32 32 32 32 33 32 32 32 33 34 35 37 38 40 40 38 35 33 32 30 29 28 26 24 20 19 20 23 26 27 27 26 25 25 25 26 27 27 27 28 29 29 30 30 30
76 74 74 74 74 74 73 72 71 69 67 66 65 64 63 63 63 62 61 59 56 53 50 48 47 45 44 43 41 41 40 38 36 34 33 33 34 33 33 33 33 33 33 33 34 34 33 33 34 33 33 34 35 36 37 39 40 41 38 35 33 31 30 29 28 28 26 24 22 21 23 26 28 28 27 26 26 27 27 28 29 29 29 29 30 31 31 32
78 76 75 75 74 74 74 74 73 71 69 68 67 66 65 66 65 64 62 59 57 54 52 51 49 48 47 46 44 43 42 41 39 37 35 35 36 36 35 35 35 34 34 34 36 36 35 34 34 34 35 35 36 37 38 39 40 41 39 36 33 32 31 29 28 28 28 26 24 22 24 26 28 28 28 27 27 28 29 30 30 30 30 30 30 32 33 33
79 78 77 76 75 75 75 75 74 73 71 70 69 68 68 68 66 65 63 60 58 56 55 54 53 51 50 49 47 45 44 43 41 40 38 37 38 37 37 37 37 37 37 36 37 38 37 36 36 36 36 37 37 38 39 40 41 41 39 36 34 32 31 30 29 28 28 27 26 25 25 27 29 29 29 29 29 29 30 31 32 32 31 31 31 32 34 34
81 80 79 77 77 76 77 76 75 74 73 72 71 71 71 70 67 66 64 61 60 58 57 56 56 55 53 52 49 47 45 44 43 42 41 40 40 39 40 39 38 39 39 39 39 40 39 38 38 38 37 37 38 39 40 41 42 41 38 36 34 32 31 31 30 29 29 28 28 27 28 29 30 30 30 30 30 31 32 33 34 34 34 32 32 32 34 35
83 82 80 79 78 78 78 77 77 76 75 74 73 74 73 71 69 67 65 63 62 60 59 59 58 57 56 54 51 48 46 45 45 44 44 43 42 41 42 41 41 41 41 41 41 42 42 41 41 40 39 38 40 41 41 43 43 41 39 36 34 33 32 31 31 30 30 30 30 30 30 31 31 32 32 32 32 33 34 35 36 36 36 35 33 33 35 35
85 84 82 81 79 79 78 78 78 77 77 76 76 76 74 72 70 68 66 65 63 62 62 61 60 59 57 55 53 50 48 47 47 46 46 46 44 43 44 44 43 43 42 43 43 44 44 44 43 43 41 41 41 42 43 44 44 43 39 37 35 34 33 33 32 31 31 30 31 32 32 33 33 33 33 33 33 34 35 36 37 38 38 37 35 35 36 37
87 86 84 82 80 79 79 79 79 79 78 78 78 77 75 73 71 69 68 67 65 64 63 63 62 61 59 57 55 52 50 50 49 48 49 48 47 46 46 46 46 45 44 45 46 46 46 46 45 44 44 43 43 44 44 45 46 44 41 37 36 35 35 34 34 33 33 31 31 33 34 35 35 35 35 34 34 35 36 37 38 39 40 39 38 37 38 39
89 87 86 84 82 81 81 80 80 80 79 80 80 78 76 74 71 69 69 68 66 65 64 64 64 62 60 59 57 54 54 53 52 51 51 49 48 48 48 47 48 48 47 48 48 48 48 48 47 46 45 45 46 46 46 47 47 45 42 39 37 36 36 36 36 36 36 34 32 33 35 37 37 36 37 37 37 38 38 39 39 40 40 41 40 40 40 41
91 90 88 86 84 83 82 82 81 81 81 81 81 79 76 74 71 70 69 68 67 66 65 65 65 63 62 61 59 58 57 56 54 53 52 51 50 50 49 49 50 50 50 50 51 51 51 50 50 48 46 47 48 48 48 48 48 47 44 40 38 38 38 38 37 37 39 38 36 35 36 38 38 38 38 39 40 41 41 41 42 41 42 43 42 42 43 44
92 92 90 88 86 85 83 83 82 82 82 83 82 79 76 73 71 70 70 68 68 67 67 67 66 65 65 64 62 61 60 57 54 54 54 53 52 52 51 51 52 52 51 52 53 54 53 52 52 51 49 48 49 50 50 50 49 48 45 42 40 39 39 39 39 39 39 40 40 39 39 40 40 39 40 41 42 43 44 44 44 44 45 45 45 44 45 46
94 93 91 89 88 86 85 84 84 84 84 83 82 79 76 74 73 72 71 70 69 69 69 68 67 67 67 65 63 62 61 58 56 56 56 55 54 54 54 54 54 53 53 54 55 57 57 54 54 54 52 50 50 50 51 51 51 50 47 44 42 41 42 41 41 41 41 41 42 42 41 42 42 41 42 43 44 46 46 47 47 47 47 47 47 47 48 49
95 94 92 91 89 88 87 87 86 85 84 83 82 80 78 76 75 74 72 71 71 71 71 70 69 69 68 66 65 64 62 60 59 57 57 57 57 57 56 56 56 56 56 56 57 59 59 57 56 56 55 53 52 51 52 52 52 52 49 47 44 44 44 44 44 44 44 44 44 43 43 43 44 44 45 45 46 47 49 49 50 50 49 49 49 49 50 51
96 95 93 92 91 91 90 89 87 86 85 84 83 83 80 78 78 76 73 73 73 73 73 72 71 70 69 67 67 66 64 62 61 59 59 59 59 59 58 58 58 58 58 58 58 60 62 60 58 58 57 56 55 54 53 53 53 52 51 48 48 47 47 48 49 48 48 48 47 45 44 44 45 47 47 47 48 49 50 51 51 51 51 51 51 52 52 53
96 95 94 93 93 93 92 90 89 88 87 86 86 85 83 81 80 77 75 74 75 76 76 74 72 71 71 69 69 68 66 64 63 62 61 62 62 61 61 61 61 61 60 60 59 61 64 63 61 59 59 58 58 57 55 54 53 52 49 48 49 50 50 51 52 52 51 49 48 48 48 47 48 49 49 49 49 50 51 52 53 53 53 53 54 54 55 56
97 96 95 95 95 94 93 91 90 90 89 88 88 87 85 84 82 79 77 76 76 78 78 75 73 73 72 72 71 70 68 66 65 64 64 64 64 63 63 63 63 62 62 62 60 61 65 66 63 61 61 60 60 60 58 57 55 52 49 47 49 51 52 53 54 54 52 49 48 50 50 49 51 51 51 52 52 51 53 53 54 55 55 55 56 56 57 58
98 97 96 95 95 95 93 92 92 92 91 90 90 89 87 86 84 81 79 78 78 80 80 77 75 75 75 74 73 72 70 69 68 67 66 66 66 65 65 65 65 64 64 64 63 62 64 67 66 64 63 62 62 61 60 59 57 55 52 50 51 52 52 53 54 54 52 50 50 52 52 51 53 53 53 54 54 53 54 54 55 56 56 56 57 57 58 59
99 98 97 96 96 96 94 93 93 93 92 91 91 90 89 87 85 82 81 80 80 81 82 80 79 78 77 76 75 74 73 72 71 70 69 69 68 68 68 67 67 67 66 66 64 63 65 68 67 66 65 64 63 62 62 61 59 57 56 55 55 55 54 54 55 55 54 53 53 54 53 53 55 55 55 56 55 55 55 55 55 56 56 57 57 58 59 60
100 99 98 97 96 96 95 95 94 93 92 91 91 90 89 88 86 84 84 83 83 83 83 83 81 80 79 78 77 77 76 75 75 73 72 71 71 70 70 70 69 69 68 67 66 65 67 69 68 68 67 66 64 64 63 61 60 59 59 59 59 58 56 57 57 57 57 56 55 54 53 54 57 58 58 58 58 57 56 56 56 57 57 57 57 58 59 61
101 100 100 98 97 97 96 96 95 94 92 91 90 90 89 88 86 85 85 86 86 85 84 84 82 81 80 79 79 78 78 77 76 75 74 73 73 72 73 73 72 71 70 69 69 68 69 70 70 69 68 66 66 66 64 63 62 61 61 62 62 60 59 60 60 60 59 58 56 55 54 55 58 59 59 61 60 59 58 57 58 58 58 57 58 59 60 61
102 101 101 100 99 98 97 97 97 95 93 91 91 90 89 89 87 87 87 87 87 86 85 84 83 82 81 80 79 78 77 76 75 75 75 76 75 75 75 75 74 73 72 72 71 70 70 71 71 70 69 68 68 67 66 64 62 62 63 64 62 61 61 62 62 62 62 60 59 58 57 57 58 60 61 62 62 61 60 60 60 60 59 59 59 60 61 62
Wind_Direction
217 219 223 225 227 227 227 229 232 236 240 245 252 262 273 283 295 307 317 326 327 331 336 341 347 351 356 359 358 357 358 360 360 2 5 9 12 13 15 15 16 17 19 20 21 22 22 23 23 23 23 24 23 23 25 27 29 20 5 28 32 23 26 17 38 65 73 70 19 2 14 39 71 94 102 102 93 87 93 74 43 38 38 34 27 6 350 336
218 220 222 225 228 229 230 231 234 237 239 244 251 258 267 277 287 297 306 314 318 324 328 333 340 345 350 354 354 353 354 357 358 358 0 4 7 10 12 12 13 14 16 18 19 20 21 22 22 22 22 23 21 20 22 24 25 20 5 8 8 348 353 5 11 38 66 77 49 359 8 23 46 74 113 128 114 99 99 84 59 55 55 47 37 25 14 3
220 220 222 225 228 230 231 232 235 237 240 243 249 256 263 271 280 289 297 303 309 317 321 326 334 341 344 348 350 349 350 354 356 356 356 359 3 7 8 8 9 11 13 15 17 19 19 20 21 21 21 21 20 18 20 22 21 17 11 12 0 332 336 8 8 357 26 60 48 357 12 31 36 31 66 95 85 77 80 75 60 59 63 54 39 30 26 20
222 222 222 224 227 230 231 232 235 237 240 243 247 253 259 266 274 281 288 295 302 310 315 321 328 336 340 343 346 345 346 350 353 354 353 355 359 4 5 5 6 8 11 13 15 18 19 19 20 20 20 20 18 17 17 19 18 13 11 14 8 348 339 349 343 321 329 347 339 321 330 44 80 59 51 68 65 58 59 53 44 48 53 43 28 21 19 15
223 223 223 225 227 230 231 232 234 237 239 242 246 251 256 261 268 274 281 288 295 303 309 315 323 330 335 339 341 341 342 346 350 352 352 352 355 0 1 1 3 6 8 11 13 16 18 19 19 19 20 19 16 16 17 17 14 10 11 14 9 357 339 324 305 296 303 305 301 302 303 294 139 98 88 297 318 40 40 26 7 11 11 3 1 3 5 5
225 224 224 226 228 230 232 233 234 237 239 242 245 249 254 259 263 269 275 281 289 296 303 309 316 324 329 333 336 337 338 342 347 350 351 351 353 356 358 359 1 3 6 9 11 14 17 18 19 18 19 17 16 16 17 15 12 10 13 13 6 355 335 315 298 286 288 289 290 292 293 293 283 238 322 323 291 292 6 359 353 352 354 351 348 348 350 359
226 225 225 226 228 230 232 234 235 236 238 241 244 248 252 256 260 265 269 276 283 290 297 303 310 316 323 326 330 333 334 337 343 347 350 349 350 354 355 356 358 1 5 8 9 12 15 17 18 18 17 17 15 15 16 15 12 11 13 9 1 351 331 313 301 289 276 271 275 278 282 287 292 292 307 341 332 299 317 331 344 349 350 342 336 338 340 352
226 226 226 227 228 230 232 234 235 237 238 240 243 247 250 254 258 261 265 271 277 284 291 297 304 310 316 321 324 329 331 333 340 345 348 348 350 352 353 354 357 -0 3 6 8 11 13 15 16 17 16 16 15 14 14 14 13 11 9 5 359 349 330 314 307 294 272 259 259 266 274 281 291 301 303 315 316 308 315 317 325 335 338 326 314 322 329 347
226 226 227 228 229 230 232 234 236 237 238 240 242 246 249 253 256 259 262 267 273 279 286 292 298 305 311 315 319 324 327 329 336 342 346 348 349 350 351 353 355 359 2 5 7 10 11 13 15 15 16 16 14 12 13 14 13 9 6 3 357 349 331 318 315 303 280 263 255 260 268 276 286 291 292 293 290 304 324 322 320 325 326 320 308 307 317 339
227 227 227 228 229 230 232 233 235 237 238 240 242 244 248 251 254 257 260 264 269 274 282 288 294 300 307 310 313 319 324 326 332 339 343 346 348 349 350 352 355 357 1 4 6 8 10 11 13 14 15 15 13 12 12 13 12 7 4 2 357 350 334 322 322 313 292 275 264 266 272 275 279 284 290 297 296 307 322 318 317 320 320 320 312 301 309 325
227 227 228 229 230 231 232 233 235 236 238 240 242 244 247 250 253 256 259 262 266 271 278 284 290 297 302 305 307 314 320 322 328 336 340 343 346 348 349 351 354 356 359 3 5 7 9 10 12 14 14 14 13 12 12 11 10 6 3 2 1 352 337 330 329 316 298 285 275 275 282 282 281 285 294 300 303 311 315 312 312 318 318 321 319 308 310 321
228 227 228 229 230 231 232 233 235 236 238 240 242 244 246 249 252 255 257 260 264 269 275 281 287 293 298 299 302 309 315 318 323 331 336 340 344 346 348 350 352 354 358 1 3 6 7 8 11 13 12 12 13 12 11 10 8 4 1 3 5 355 339 337 338 321 300 290 277 261 269 282 284 292 301 302 308 313 312 311 312 317 319 319 322 318 319 326
228 228 228 229 230 231 232 233 234 236 238 240 241 243 246 249 251 254 257 260 263 267 273 279 284 289 293 295 299 305 311 314 318 326 333 337 341 344 347 349 350 353 356 359 2 5 6 8 10 9 10 12 13 12 10 9 7 4 0 3 5 355 343 344 345 328 304 294 281 251 235 253 275 293 299 300 308 312 311 311 310 313 316 315 318 321 323 328
229 229 229 229 230 231 232 233 234 236 238 240 241 243 245 248 251 254 256 260 263 266 271 276 281 285 289 292 296 302 307 310 314 321 330 333 336 341 345 347 349 351 353 356 360 3 5 7 7 6 9 12 13 11 9 8 6 4 0 3 5 355 350 354 350 334 312 303 295 276 240 236 262 280 287 297 305 310 310 310 310 312 314 314 316 318 319 323
229 229 230 229 230 231 232 233 234 235 237 239 241 243 245 248 251 253 256 259 262 265 270 274 277 281 286 289 293 298 303 307 309 316 324 330 333 338 343 346 347 349 351 353 357 2 5 5 2 4 9 12 12 10 9 7 6 4 0 3 5 358 358 359 351 339 327 323 318 305 280 259 259 267 283 304 306 308 310 310 311 311 311 312 314 315 317 321
229 229 230 230 230 231 231 233 233 235 237 239 241 243 245 247 250 253 256 259 261 264 268 271 274 278 282 286 290 295 299 303 305 310 319 325 329 333 339 343 345 346 348 351 356 -0 1 0 0 4 10 11 11 9 8 6 6 4 0 3 5 1 1 0 355 349 343 339 334 326 317 303 286 283 298 304 297 303 307 306 305 305 306 308 313 317 319 323
228 229 230 231 231 231 232 232 233 234 236 238 240 242 244 247 249 252 255 258 260 263 266 269 272 275 278 282 287 291 295 298 300 305 314 321 325 329 335 340 342 343 345 349 353 356 357 357 0 5 8 10 10 8 7 5 5 4 1 2 5 4 3 1 357 353 345 336 330 326 324 319 309 300 298 291 286 295 296 295 298 301 303 307 312 317 318 322
228 229 230 231 231 232 232 232 233 234 236 238 239 242 244 246 249 251 254 256 259 261 264 267 269 271 275 279 284 288 291 294 297 301 310 317 322 325 330 335 338 340 343 347 351 352 353 356 360 3 6 8 8 7 6 5 4 4 2 1 3 4 6 4 356 349 340 325 319 317 313 311 306 298 294 293 293 295 295 296 300 303 305 309 313 315 316 320
227 229 230 231 231 232 232 233 233 234 236 237 239 242 244 246 248 250 253 255 257 260 263 265 267 269 272 277 281 285 289 292 294 298 306 313 319 323 326 330 334 337 340 344 348 349 351 355 358 0 3 5 6 6 6 5 4 3 2 2 2 1 4 5 355 343 335 318 305 299 297 299 301 301 303 305 304 305 304 305 307 309 312 316 320 320 320 322
226 228 230 230 231 232 233 233 233 234 236 237 239 241 243 245 247 250 252 254 256 259 261 263 265 267 271 275 279 283 286 289 290 294 302 310 315 319 322 324 328 333 337 342 345 346 348 351 354 356 1 3 4 5 5 5 4 2 1 3 2 359 359 360 350 341 332 318 303 296 296 299 307 309 310 310 310 310 309 311 315 316 317 320 323 324 322 323
225 227 229 230 231 232 233 233 234 235 236 237 239 241 243 245 247 249 251 253 255 257 259 261 263 266 269 272 276 281 283 285 287 290 298 306 310 313 315 318 324 330 335 339 342 343 345 347 349 352 357 0 2 3 3 4 4 2 1 2 2 358 356 353 346 341 336 328 324 321 319 316 313 311 311 312 313 313 313 315 317 316 316 318 322 323 322 324
225 227 229 230 231 232 232 233 234 235 236 237 238 240 241 244 246 248 250 252 254 256 257 259 261 264 266 270 274 278 280 281 283 287 294 301 305 307 310 314 321 327 332 335 338 339 341 343 344 347 352 357 360 1 1 3 3 2 1 1 0 358 354 349 343 342 337 334 341 338 331 332 325 317 315 312 310 312 314 314 314 315 317 318 320 321 323 325
224 226 228 229 230 231 232 233 234 234 235 236 238 239 241 243 245 247 249 251 253 254 255 257 259 262 265 269 273 276 277 278 279 283 290 297 300 303 306 311 318 323 327 331 334 335 337 339 340 342 348 353 356 358 359 0 1 1 1 1 359 357 353 348 342 340 337 334 342 346 338 335 329 321 319 315 311 314 316 316 315 315 316 317 319 321 322 323
224 225 227 229 230 231 232 233 233 234 234 236 237 238 240 242 244 246 248 250 251 251 253 255 258 261 264 268 271 274 275 274 276 281 288 294 298 300 304 308 313 318 322 326 329 332 333 335 336 338 344 349 352 355 356 358 360 359 0 1 359 356 352 347 341 339 336 330 335 342 335 329 324 320 320 319 318 319 319 318 317 315 315 316 320 321 321 320
224 225 227 228 229 230 231 232 232 233 234 235 236 237 239 241 243 245 246 248 249 250 252 255 257 260 263 267 270 272 272 272 274 280 286 292 295 297 300 304 309 313 317 322 325 328 329 330 332 334 340 344 348 353 354 356 358 357 358 360 358 356 351 344 340 337 333 321 323 331 331 325 321 319 320 320 320 320 318 317 316 315 314 315 319 320 319 317
225 225 226 228 229 230 231 231 232 233 233 234 235 237 238 240 242 243 245 246 248 250 252 254 256 259 262 266 268 270 270 271 274 279 285 289 291 293 295 299 303 307 312 317 321 324 325 326 328 331 336 341 345 350 352 353 355 355 355 357 358 357 352 343 336 332 329 319 315 322 328 326 320 317 318 319 318 316 315 314 313 312 311 312 316 316 315 315
225 225 226 227 228 229 230 231 232 232 233 234 235 236 237 239 240 242 243 245 247 249 251 253 255 258 261 264 267 269 269 270 273 278 283 287 288 289 292 295 299 303 308 313 318 321 322 323 326 330 335 339 342 347 349 350 352 352 353 355 356 356 354 345 334 328 325 321 315 315 321 325 319 316 317 316 314 313 312 312 311 310 309 310 310 309 310 311
225 225 226 227 228 229 229 230 231 232 232 233 234 235 236 238 239 241 242 244 247 248 250 252 255 258 260 263 265 267 267 269 273 276 280 283 285 286 289 293 297 301 307 311 316 319 320 321 323 328 332 335 338 343 345 345 347 349 350 352 353 354 354 348 339 330 323 318 312 309 314 319 316 314 315 314 312 311 311 312 311 309 308 307 304 302 303 305
224 225 226 227 227 228 229 229 230 231 232 233 233 234 236 237 238 240 242 244 246 248 250 252 254 257 260 262 264 265 266 268 271 274 278 281 281 283 286 290 295 299 304 309 313 317 318 317 320 325 328 330 333 338 340 341 343 345 346 349 351 351 351 350 344 337 327 314 305 304 308 313 311 311 313 313 312 311 311 311 310 308 307 305 302 301 302 303
224 225 225 226 227 227 228 229 230 231 231 232 233 234 235 236 238 240 241 243 246 248 249 252 254 257 259 262 263 265 266 268 270 272 276 278 279 280 284 287 291 296 300 305 309 312 313 313 316 321 324 325 329 333 335 337 339 341 343 347 349 348 348 349 347 343 336 318 303 301 305 307 306 307 311 313 311 310 308 308 308 308 306 305 303 304 305 305
224 225 225 226 226 227 228 228 229 230 231 232 233 234 235 236 238 239 241 243 245 247 250 252 254 257 259 261 264 265 266 267 268 270 274 276 276 277 281 285 289 293 297 301 305 308 309 310 313 317 319 322 326 329 331 333 335 338 341 344 346 345 345 347 346 344 341 327 309 302 302 303 303 305 308 311 309 306 305 305 306 307 306 305 305 305 306 306
223 224 225 225 226 227 227 228 229 230 231 232 233 234 235 236 238 239 241 243 246 248 251 253 255 257 259 261 263 264 265 265 265 268 272 273 272 274 278 281 286 291 295 298 301 303 305 307 310 313 316 319 323 326 328 330 332 335 338 341 343 342 343 345 344 342 341 333 318 307 302 300 300 302 305 307 307 305 304 304 305 305 305 305 305 306 306 306
223 224 225 225 226 226 227 228 229 230 231 232 233 234 236 237 238 240 242 244 247 249 252 253 254 256 258 259 261 262 263 264 264 266 269 270 270 272 275 279 284 288 292 295 297 299 302 305 308 310 313 316 320 322 324 326 329 332 335 338 340 339 340 342 341 340 340 336 326 316 306 301 300 301 302 303 303 304 303 303 302 302 302 304 305 305 305 304
222 224 224 225 225 226 227 228 229 230 231 233 234 235 236 238 239 241 243 245 247 249 250 252 253 254 255 257 259 260 261 263 264 266 268 269 269 271 274 278 282 286 289 292 294 296 300 303 305 307 310 313 317 319 321 324 326 328 332 334 336 337 338 339 339 338 337 336 330 320 309 304 304 303 302 301 300 301 300 299 298 299 300 302 304 304 303 303
222 223 224 225 225 226 227 228 229 230 232 233 234 236 237 238 240 242 244 246 247 248 248 250 251 252 253 255 256 258 259 262 265 267 270 270 269 270 273 276 280 284 287 290 292 294 297 300 302 304 307 311 314 316 318 321 323 326 329 330 331 334 335 336 337 336 334 334 330 322 313 310 309 307 304 302 300 299 298 297 297 297 298 300 301 302 302 302
221 223 224 225 225 226 227 228 229 230 232 233 234 236 237 239 241 243 244 246 247 247 248 249 250 251 253 254 256 257 260 263 265 267 270 270 268 269 272 274 278 282 285 288 290 292 295 298 300 302 305 309 311 313 316 318 320 323 325 326 327 329 331 332 334 333 332 331 328 323 317 314 312 310 308 305 302 299 298 298 298 296 296 296 297 299 301 301
221 223 224 225 225 226 227 228 229 230 232 233 234 236 238 239 241 242 244 245 245 246 247 248 250 251 253 254 256 258 259 261 263 266 269 268 266 268 270 274 277 280 283 286 289 291 294 296 298 300 304 307 309 310 313 314 317 320 321 322 323 324 326 329 331 330 329 328 325 322 319 315 313 312 309 307 303 300 298 296 295 294 294 294 295 298 299 299
222 223 224 225 226 227 228 228 229 230 232 233 234 236 238 239 240 241 243 244 245 246 247 249 250 252 253 255 256 257 257 258 261 264 267 266 266 267 269 273 275 278 282 285 287 290 292 294 296 299 302 305 306 308 309 311 314 317 318 318 319 320 322 325 327 327 326 324 322 320 317 315 314 311 309 307 303 299 297 295 293 292 292 293 295 297 298 298
222 223 224 225 226 227 228 229 230 231 232 233 235 236 237 239 240 241 242 244 245 246 248 249 251 252 254 255 256 256 255 257 259 262 263 264 265 267 269 272 275 278 281 283 286 288 289 291 294 297 300 301 302 305 307 308 311 314 314 314 315 316 318 321 324 324 323 322 320 317 314 313 313 312 309 307 304 300 298 296 294 293 293 295 296 297 297 298
223 224 225 225 226 227 228 229 230 231 232 234 235 236 237 238 239 241 242 244 245 246 248 249 251 253 253 254 254 254 254 256 258 260 262 263 264 266 269 272 275 278 281 283 285 286 287 289 292 294 296 298 300 302 304 306 309 311 312 311 311 313 315 317 320 320 321 320 318 315 311 310 312 311 309 307 304 302 300 299 297 296 296 296 296 297 297 298
223 225 225 225 226 227 228 229 231 232 233 234 235 236 237 238 239 241 242 244 245 246 248 249 250 251 252 252 253 253 255 256 259 261 262 262 263 266 269 272 274 277 280 282 284 285 286 288 290 292 293 295 297 300 302 305 306 308 309 308 308 310 312 314 316 317 318 318 317 314 310 309 310 311 308 306 304 303 302 301 300 299 298 298 297 297 297 298
223 225 226 226 227 228 229 230 231 232 234 235 236 237 238 239 240 241 242 244 245 246 247 248 249 250 251 252 254 255 256 258 259 260 261 262 263 265 267 270 272 275 278 280 282 283 285 287 289 290 291 292 295 297 300 303 304 305 306 306 306 307 309 311 312 313 314 314 314 313 310 308 310 308 305 304 303 303 302 302 301 300 299 299 299 299 299 299
223 225 226 227 228 229 230 231 232 233 234 236 238 238 239 239 240 241 242 243 244 246 247 248 249 250 252 253 254 255 256 257 257 258 259 261 262 264 266 269 271 274 276 278 280 282 284 286 287 288 289 291 293 295 298 301 302 303 304 304 304 305 307 309 309 310 311 311 312 312 308 307 308 306 302 302 302 302 302 301 301 300 300 300 300 300 301 301
223 225 226 227 228 229 230 232 233 234 235 237 238 238 239 239 240 240 241 243 244 245 246 247 249 250 251 252 253 254 255 256 256 257 259 261 262 264 266 269 271 273 275 277 279 281 283 284 286 287 288 290 292 294 296 298 300 302 303 303 302 303 304 306 307 308 309 310 311 310 306 306 305 302 301 301 301 301 301 300 300 301 301 301 301 302 303 303
223 225 226 227 228 229 231 232 233 234 236 237 238 238 238 239 239 240 241 242 244 245 245 246 248 249 251 252 252 253 254 255 257 258 260 262 263 265 267 270 271 273 275 277 279 281 282 283 284 286 288 290 292 293 294 295 297 300 302 302 301 301 303 304 306 309 310 312 311 308 306 305 302 300 300 301 300 300 299 298 298 300 300 301 302 303 303 304
223 225 226 227 228 229 231 232 233 235 236 237 238 239 239 239 240 240 240 242 244 245 246 246 248 250 251 252 253 254 255 256 257 258 260 262 264 266 268 269 271 272 274 276 278 280 281 282 284 285 287 290 291 292 293 295 296 298 300 299 299 300 302 304 306 309 312 313 310 306 306 305 301 299 300 299 298 297 297 297 298 300 301 302 303 303 303 303
223 225 226 227 228 229 230 232 233 235 236 237 238 239 240 240 240 240 241 242 244 246 247 248 249 250 252 253 254 255 256 257 258 259 261 262 264 266 267 268 270 271 273 275 276 278 280 282 283 285 286 288 289 291 293 295 296 296 296 296 296 298 301 304 306 308 311 310 305 303 304 303 300 299 299 298 297 297 297 298 299 300 301 302 302 301 301 302
224 225 226 227 228 229 230 231 233 234 236 237 239 240 241 241 242 242 243 244 245 247 249 249 249 250 251 253 254 255 256 257 258 259 260 262 263 265 266 267 269 270 271 273 275 276 278 280 282 284 285 286 287 290 293 294 295 295 295 294 294 296 300 302 304 306 308 306 301 301 303 302 298 298 298 297 297 297 297 298 299 299 299 299 299 299 300 301
224 225 226 227 229 230 230 231 233 234 235 237 239 240 241 242 243 244 244 245 246 247 249 250 250 251 252 253 254 256 257 257 258 259 260 261 263 264 265 266 267 269 270 272 274 275 276 278 281 283 284 285 287 290 291 293 294 294 294 294 295 297 300 301 302 303 304 303 301 302 303 300 297 297 297 296 296 295 295 296 296 296 297 297 298 298 299 299
224 225 226 227 229 230 230 231 232 233 235 237 239 240 241 242 243 244 244 245 245 246 249 250 251 252 253 254 255 256 257 258 259 260 261 262 263 264 265 266 267 268 269 271 272 273 274 277 279 281 283 285 287 288 290 291 292 292 293 294 295 298 300 300 301 302 303 303 302 302 301 298 296 297 297 296 295 295 294 294 294 295 295 295 296 297 297 298
225 225 226 227 229 230 231 231 232 233 234 236 238 239 241 241 242 243 244 245 245 246 248 250 251 252 253 254 255 256 258 259 261 261 262 262 262 263 264 265 266 267 268 269 270 272 274 276 278 280 282 284 286 287 289 290 291 292 292 293 295 298 299 299 300 302 303 303 301 300 298 295 295 296 295 295 295 295 294 293 293 294 294 296 296 296 297 299
225 226 227 227 228 230 231 232 232 233 234 235 237 238 240 240 241 242 243 244 246 246 247 249 250 251 252 253 255 256 258 259 260 261 261 261 262 262 263 264 265 266 267 268 270 272 274 276 278 280 282 284 285 286 287 289 291 290 290 292 295 297 298 299 300 301 302 301 299 298 296 294 294 294 294 294 295 295 294 293 293 295 296 297 297 297 299 300
Height
11028 11029 11029 11030 11031 11032 11032 11033 11033 11034 11034 11035 11035 11035 11035 11035 11035 11035 11034 11034 11033 11033 11033 11032 11032 11031 11030 11029 11027 11026 11025 11023 11022 11021 11019 11018 11016 11013 11011 11009 11007 11005 11003 11001 10998 10995 10993 10990 10988 10985 10983 10981 10980 10978 10977 10975 10974 10974 10973 10972 10971 10970 10971 10970 10968 10967 10967 10966 10964 10963 10963 10962 10961 10961 10961 10961 10961 10961 10960 10960 10959 10958 10957 10956 10956 10955 10955 10955
11026 11027 11028 11029 11029 11030 11031 11032 11032 11033 11033 11034 11034 11035 11035 11035 11035 11034 11034 11034 11033 11033 11033 11032 11032 11031 11030 11029 11028 11026 11025 11024 11022 11021 11020 11018 11016 11014 11012 11010 11008 11006 11004 11002 10999 10997 10994 10991 10989 10986 10984 10982 10981 10979 10978 10976 10975 10974 10973 10972 10971 10970 10971 10969 10967 10967 10968 10967 10965 10964 10963 10962 10962 10961 10961 10962 10962 10962 10961 10961 10960 10958 10957 10956 10956 10955 10954 10954
11024 11025 11026 11027 11027 11028 11029 11030 11031 11031 11032 11033 11033 11034 11034 11034 11034 11034 11034 11034 11033 11033 11033 11032 11032 11031 11030 11029 11028 11026 11025 11024 11023 11022 11020 11019 11017 11015 11013 11011 11009 11006 11004 11002 11000 10998 10995 10992 10990 10987 10985 10982 10981 10980 10978 10976 10975 10974 10973 10971 10970 10969 10969 10969 10967 10966 10967 10967 10966 10965 10963 10963 10962 10962 10961 10962 10962 10962 10962 10961 10960 10959 10958 10957 10956 10955 10954 10953
11022 11023 11024 11025 11026 11026 11027 11028 11029 11030 11031 11032 11032 11033 11033 11034 11034 11034 11034 11033 11033 11033 11033 11032 11032 11031 11030 11029 11028 11026 11025 11024 11023 11022 11020 11019 11018 11016 11014 11012 11010 11007 11005 11003 11001 10998 10996 10993 10990 10988 10985 10982 10981 10979 10977 10975 10974 10973 10971 10969 10968 10967 10967 10968 10967 10966 10967 10967 10966 10965 10964 10964 10963 10962 10962 10962 10963 10962 10962 10961 10961 10960 10959 10957 10956 10955 10955 10954
11020 11021 11022 11023 11024 11025 11025 11027 11028 11029 11030 11030 11031 11032 11032 11033 11033 11033 11033 11033 11033 11032 11032 11032 11032 11031 11030 11029 11028 11026 11025 11024 11023 11022 11021 11019 11018 11016 11015 11012 11010 11008 11006 11003 11001 10999 10996 10993 10991 10988 10985 10983 10982 10979 10976 10974 10973 10972 10970 10967 10967 10966 10966 10966 10967 10967 10967 10966 10965 10965 10964 10964 10964 10964 10963 10963 10963 10963 10962 10961 10961 10960 10959 10957 10956 10955 10954 10954
11017 11019 11020 11021 11022 11023 11024 11025 11026 11027 11028 11029 11030 11031 11031 11032 11032 11032 11032 11032 11032 11032 11032 11032 11031 11031 11030 11029 11028 11026 11025 11024 11023 11022 11021 11019 11018 11017 11015 11013 11011 11009 11006 11004 11002 10999 10997 10994 10992 10989 10986 10985 10983 10979 10976 10974 10973 10971 10968 10966 10966 10966 10965 10965 10966 10967 10967 10965 10964 10963 10962 10962 10963 10964 10963 10963 10962 10962 10961 10960 10959 10959 10958 10957 10956 10954 10953 10953
11015 11016 11018 11019 11020 11020 11022 11023 11024 11026 11027 11028 11028 11029 11030 11031 11031 11031 11031 11032 11031 11031 11031 11031 11031 11030 11030 11029 11028 11027 11025 11024 11023 11022 11021 11019 11018 11017 11015 11013 11011 11009 11007 11005 11002 11000 10998 10995 10993 10990 10988 10985 10982 10979 10977 10975 10973 10970 10967 10966 10966 10965 10964 10964 10964 10966 10966 10965 10963 10962 10961 10961 10961 10962 10962 10961 10961 10960 10959 10958 10958 10957 10956 10956 10955 10954 10952 10952
11012 11014 11015 11016 11017 11018 11020 11021 11023 11024 11025 11026 11027 11028 11028 11029 11030 11030 11030 11031 11031 11031 11031 11030 11030 11030 11029 11028 11027 11026 11025 11024 11023 11022 11021 11019 11018 11017 11015 11014 11012 11010 11008 11005 11003 11000 10998 10996 10993 10991 10988 10984 10982 10980 10977 10975 10972 10969 10967 10966 10965 10965 10963 10962 10963 10965 10965 10964 10963 10962 10961 10960 10960 10960 10961 10960 10960 10959 10958 10957 10956 10956 10955 10954 10953 10952 10951 10951
11009 11011 11012 11014 11015 11016 11018 11019 11021 11022 11023 11024 11025 11026 11027 11027 11028 11029 11029 11030 11030 11030 11030 11030 11029 11029 11029 11028 11027 11026 11025 11024 11022 11021 11020 11019 11018 11016 11015 11014 11012 11010 11008 11006 11003 11000 10998 10996 10993 10990 10987 10984 10982 10980 10976 10973 10970 10968 10967 10966 10965 10964 10963 10961 10961 10963 10963 10963 10963 10961 10960 10960 10959 10959 10959 10959 10958 10958 10957 10955 10954 10954 10953 10952 10952 10951 10950 10950
11005 11008 11009 11011 11012 11014 11015 11017 11018 11020 11021 11022 11023 11024 11025 11026 11026 11027 11028 11028 11029 11029 11029 11029 11028 11028 11028 11027 11026 11025 11024 11023 11022 11021 11020 11018 11017 11016 11015 11014 11012 11010 11008 11006 11003 11001 10998 10996 10993 10990 10987 10984 10982 10978 10975 10972 10970 10969 10968 10966 10965 10963 10962 10960 10960 10961 10961 10961 10961 10960 10960 10959 10958 10957 10957 10957 10957 10956 10955 10954 10953 10952 10952 10950 10950 10950 10949 10949
11002 11004 11006 11008 11009 11011 11013 11014 11016 11018 11019 11020 11021 11022 11023 11023 11024 11025 11026 11027 11027 11028 11028 11028 11027 11027 11027 11026 11026 11025 11024 11023 11021 11020 11019 11018 11017 11016 11015 11013 11012 11010 11008 11006 11004 11001 10998 10996 10993 10990 10988 10985 10982 10978 10974 10972 10971 10970 10968 10966 10964 10962 10961 10960 10959 10959 10959 10959 10960 10960 10959 10958 10957 10956 10956 10955 10955 10955 10954 10953 10952 10951 10950 10949 10948 10948 10947 10947
10998 11001 11003 11005 11006 11008 11010 11012 11014 11015 11016 11017 11018 11020 11020 11021 11022 11023 11024 11025 11026 11026 11027 11026 11026 11026 11026 11025 11025 11024 11023 11022 11021 11020 11019 11018 11017 11015 11014 11013 11011 11010 11008 11006 11004 11001 10999 10996 10993 10991 10989 10986 10982 10978 10975 10973 10971 10970 10968 10966 10963 10962 10960 10959 10959 10958 10957 10958 10960 10960 10959 10957 10956 10955 10955 10954 10954 10954 10953 10952 10952 10951 10949 10948 10946 10946 10945 10945
10994 10997 10999 11001 11003 11005 11007 11009 11011 11013 11014 11015 11016 11017 11018 11019 11020 11021 11022 11023 11024 11025 11025 11025 11025 11024 11024 11024 11023 11023 11022 11021 11020 11019 11018 11017 11016 11015 11014 11012 11010 11009 11007 11006 11003 11001 10999 10996 10993 10992 10990 10986 10981 10978 10976 10974 10972 10969 10967 10964 10962 10961 10959 10958 10958 10957 10957 10957 10958 10959 10959 10957 10956 10956 10954 10953 10953 10953 10953 10952 10950 10950 10948 10947 10945 10944 10944 10944
10990 10993 10995 10997 11000 11002 11004 11006 11008 11010 11011 11012 11014 11015 11015 11016 11018 11019 11020 11021 11022 11023 11024 11024 11023 11023 11023 11023 11022 11022 11021 11020 11019 11018 11017 11016 11015 11014 11013 11011 11010 11008 11007 11005 11004 11001 10998 10995 10994 10994 10990 10985 10981 10979 10977 10975 10973 10970 10968 10964 10962 10961 10959 10957 10957 10956 10956 10956 10956 10957 10958 10958 10957 10957 10955 10953 10953 10952 10952 10950 10949 10948 10947 10946 10945 10943 10943 10943
10986 10988 10991 10993 10996 10998 11001 11003 11005 11007 11008 11009 11011 11012 11013 11014 11015 11016 11018 11019 11020 11021 11022 11022 11022 11021 11022 11021 11021 11020 11020 11019 11018 11017 11016 11015 11014 11013 11012 11011 11009 11008 11007 11005 11003 11001 10998 10997 10996 10994 10990 10985 10982 10980 10978 10976 10973 10971 10968 10965 10962 10961 10959 10957 10956 10956 10955 10955 10955 10955 10956 10957 10957 10957 10956 10954 10953 10952 10950 10949 10947 10946 10945 10944 10944 10943 10943 10943
10981 10984 10987 10990 10992 10995 10997 11000 11002 11003 11005 11006 11008 11009 11010 11011 11013 11014 11015 11016 11018 11019 11019 11020 11020 11020 11020 11020 11020 11019 11019 11018 11017 11016 11015 11014 11014 11013 11011 11010 11008 11007 11006 11005 11003 11001 10999 10999 10997 10993 10989 10986 10983 10980 10978 10976 10974 10971 10968 10965 10963 10960 10958 10957 10956 10954 10953 10953 10953 10953 10954 10955 10956 10956 10956 10955 10954 10952 10950 10949 10947 10946 10945 10944 10943 10942 10942 10941
10977 10980 10982 10985 10988 10991 10993 10996 10998 11000 11001 11003 11005 11006 11007 11008 11010 11011 11013 11014 11015 11016 11017 11018 11018 11018 11018 11018 11018 11018 11017 11016 11016 11015 11014 11013 11012 11012 11011 11009 11008 11007 11006 11004 11003 11001 11000 10998 10996 10992 10989 10987 10985 10982 10978 10976 10974 10972 10969 10965 10963 10961 10958 10957 10956 10955 10954 10953 10952 10952 10953 10953 10954 10954 10955 10955 10954 10953 10951 10949 10947 10946 10945 10944 10943 10942 10941 10940
10972 10975 10978 10981 10984 10987 10989 10992 10994 10996 10998 11000 11001 11003 11004 11005 11007 11008 11010 11011 11012 11013 11014 11015 11016 11016 11016 11016 11016 11016 11016 11015 11014 11014 11013 11012 11011 11010 11009 11008 11007 11006 11005 11004 11002 11001 10999 10997 10994 10992 10990 10988 10986 10983 10979 10976 10974 10972 10969 10966 10963 10961 10960 10958 10957 10956 10955 10954 10953 10953 10952 10953 10952 10952 10953 10953 10952 10951 10950 10948 10947 10945 10944 10944 10943 10941 10940 10940
10967 10970 10973 10976 10979 10982 10985 10988 10990 10992 10994 10996 10998 10999 11001 11002 11004 11005 11006 11008 11009 11010 11011 11012 11013 11013 11014 11014 11014 11014 11014 11013 11013 11012 11011 11010 11009 11009 11008 11007 11006 11005 11003 11002 11001 10999 10997 10995 10993 10992 10991 10989 10987 10984 10981 10978 10974 10971 10970 10967 10963 10961 10960 10959 10958 10957 10957 10956 10955 10954 10953 10953 10951 10950 10951 10951 10950 10949 10948 10946 10945 10944 10943 10942 10941 10940 10938 10938
10962 10965 10969 10972 10975 10978 10981 10983 10986 10988 10991 10993 10995 10996 10998 10999 11001 11002 11003 11005 11006 11007 11009 11010 11010 11011 11012 11012 11012 11012 11012 11011 11011 11010 11010 11009 11008 11007 11007 11006 11005 11004 11002 11001 10999 10997 10995 10994 10992 10992 10991 10990 10988 10985 10982 10979 10974 10971 10969 10966 10963 10961 10960 10959 10958 10958 10958 10957 10956 10955 10954 10953 10951 10949 10949 10949 10948 10947 10946 10945 10944 10942 10941 10941 10940 10938 10937 10936
10957 10960 10964 10967 10970 10973 10976 10979 10982 10985 10987 10989 10991 10993 10995 10996 10997 10999 11000 11001 11003 11005 11006 11007 11007 11008 11009 11009 11010 11010 11010 11009 11009 11009 11008 11007 11007 11006 11006 11005 11004 11002 11000 10999 10998 10996 10995 10993 10992 10991 10991 10991 10988 10985 10982 10979 10976 10972 10969 10965 10963 10961 10960 10959 10958 10958 10958 10957 10956 10955 10953 10952 10951 10950 10949 10948 10947 10946 10945 10943 10942 10941 10940 10939 10938 10937 10935 10934
10952 10955 10959 10962 10965 10968 10971 10975 10978 10981 10983 10985 10987 10989 10991 10992 10993 10995 10997 10998 11000 11002 11003 11004 11004 11005 11006 11006 11007 11008 11008 11007 11007 11007 11007 11006 11006 11005 11005 11004 11002 11000 10999 10998 10997 10996 10994 10993 10991 10990 10990 10990 10989 10986 10983 10980 10977 10973 10970 10966 10964 10962 10961 10959 10958 10957 10957 10955 10955 10954 10953 10951 10950 10949 10949 10947 10946 10945 10944 10942 10941 10940 10939 10938 10937 10936 10935 10933
10946 10950 10953 10957 10960 10963 10967 10970 10974 10976 10979 10981 10983 10985 10987 10988 10990 10992 10993 10994 10997 10998 10999 11000 11001 11002 11003 11004 11005 11005 11006 11006 11005 11005 11005 11005 11004 11004 11003 11002 11001 10999 10998 10997 10996 10995 10994 10993 10991 10990 10990 10989 10988 10986 10983 10980 10977 10974 10971 10967 10964 10963 10961 10960 10958 10957 10956 10954 10953 10953 10951 10950 10949 10948 10948 10947 10946 10944 10942 10941 10939 10938 10937 10937 10936 10935 10934 10933
10940 10944 10948 10951 10955 10958 10962 10966 10969 10971 10974 10977 10979 10981 10983 10984 10986 10988 10989 10991 10993 10995 10996 10997 10998 10999 11000 11001 11002 11003 11003 11003 11003 11003 11003 11003 11003 11002 11001 11000 10999 10998 10997 10996 10996 10995 10994 10993 10991 10990 10989 10989 10988 10986 10983 10981 10978 10974 10971 10968 10965 10963 10962 10960 10958 10956 10954 10953 10952 10951 10950 10949 10948 10947 10946 10945 10944 10943 10941 10939 10938 10937 10936 10935 10934 10934 10933 10932
10935 10939 10942 10946 10949 10953 10957 10961 10964 10967 10970 10972 10974 10976 10978 10980 10982 10984 10985 10987 10989 10990 10992 10993 10995 10996 10997 10998 10999 11000 11000 11000 11000 11000 11000 11000 11000 11000 10999 10998 10998 10997 10996 10995 10994 10993 10992 10991 10991 10990 10989 10988 10987 10985 10983 10980 10977 10974 10971 10968 10966 10963 10961 10960 10959 10956 10954 10952 10951 10950 10950 10949 10948 10946 10945 10944 10942 10941 10939 10938 10936 10935 10934 10933 10933 10932 10931 10930
10929 10933 10937 10940 10944 10948 10952 10956 10959 10962 10965 10967 10970 10972 10974 10976 10978 10979 10981 10983 10985 10986 10988 10990 10991 10992 10994 10995 10995 10996 10997 10997 10997 10997 10997 10997 10997 10998 10997 10997 10996 10995 10995 10994 10993 10992 10990 10989 10988 10988 10987 10986 10984 10983 10980 10978 10976 10974 10971 10969 10966 10964 10962 10959 10958 10956 10955 10953 10950 10949 10948 10948 10947 10945 10944 10942 10940 10939 10938 10936 10935 10933 10932 10931 10931 10931 10930 10928
10923 10927 10931 10934 10938 10943 10947 10951 10954 10957 10960 10962 10964 10967 10969 10971 10973 10975 10977 10978 10980 10983 10984 10986 10987 10989 10990 10991 10992 10993 10993 10994 10994 10994 10994 10994 10995 10995 10995 10995 10994 10993 10993 10992 10992 10991 10989 10987 10985 10985 10984 10982 10981 10980 10978 10977 10976 10974 10971 10969 10967 10964 10962 10959 10957 10955 10953 10952 10949 10947 10946 10946 10945 10944 10942 10941 10939 10937 10936 10935 10933 10932 10930 10929 10929 10929 10928 10927
10917 10921 10925 10929 10933 10937 10942 10945 10949 10952 10954 10957 10959 10962 10964 10967 10969 10970 10972 10973 10976 10978 10980 10982 10983 10985 10986 10988 10989 10990 10990 10991 10991 10991 10991 10991 10992 10992 10992 10992 10991 10990 10989 10989 10989 10988 10986 10984 10983 10982 10981 10980 10979 10978 10977 10976 10975 10973 10971 10969 10967 10964 10962 10960 10957 10955 10952 10950 10948 10945 10944 10944 10943 10942 10941 10939 10937 10935 10934 10933 10931 10929 10928 10927 10927 10927 10926 10924
10911 10915 10919 10923 10927 10931 10936 10940 10943 10946 10948 10951 10954 10957 10959 10962 10963 10965 10967 10968 10971 10974 10976 10978 10979 10980 10982 10984 10985 10986 10987 10988 10988 10988 10988 10989 10989 10989 10989 10989 10989 10987 10986 10986 10986 10985 10984 10982 10981 10980 10979 10978 10978 10977 10976 10974 10973 10972 10971 10969 10966 10964 10962 10960 10958 10956 10953 10951 10947 10945 10943 10942 10941 10940 10940 10938 10935 10933 10932 10930 10929 10927 10926 10925 10924 10924 10923 10921
10905 10909 10913 10917 10921 10925 10930 10934 10937 10940 10942 10945 10949 10951 10954 10956 10957 10959 10962 10964 10966 10969 10972 10973 10975 10976 10978 10979 10981 10982 10983 10985 10986 10985 10985 10986 10986 10986 10986 10986 10986 10986 10984 10984 10984 10983 10982 10981 10980 10979 10978 10977 10976 10975 10973 10972 10971 10970 10969 10967 10965 10963 10961 10959 10957 10955 10954 10952 10948 10944 10942 10941 10939 10938 10938 10936 10934 10932 10930 10928 10927 10925 10923 10922 10921 10920 10919 10917
10898 10902 10907 10911 10915 10919 10924 10928 10931 10934 10937 10940 10943 10946 10949 10950 10952 10954 10956 10958 10961 10964 10967 10970 10971 10973 10974 10975 10977 10977 10979 10982 10983 10982 10982 10983 10983 10983 10983 10983 10983 10983 10982 10982 10982 10982 10980 10979 10978 10978 10977 10975 10974 10973 10971 10969 10968 10968 10967 10965 10963 10961 10959 10958 10956 10954 10953 10951 10948 10944 10942 10940 10938 10936 10935 10934 10933 10931 10929 10927 10925 10923 10921 10919 10918 10917 10916 10914
10891 10896 10900 10905 10909 10913 10918 10921 10924 10927 10931 10934 10937 10940 10943 10944 10946 10947 10950 10953 10956 10960 10964 10966 10968 10969 10969 10971 10972 10973 10974 10977 10979 10979 10979 10980 10980 10980 10980 10980 10980 10980 10980 10979 10979 10979 10978 10977 10976 10975 10974 10973 10973 10971 10969 10967 10966 10965 10964 10963 10961 10959 10957 10956 10954 10952 10951 10949 10947 10944 10941 10938 10936 10935 10934 10932 10931 10929 10927 10924 10923 10921 10919 10917 10915 10914 10912 10911
10885 10889 10894 10898 10903 10907 10911 10915 10918 10921 10924 10928 10931 10934 10937 10938 10939 10941 10945 10949 10953 10957 10960 10962 10963 10964 10965 10966 10967 10968 10969 10972 10974 10975 10976 10976 10976 10977 10977 10977 10977 10977 10977 10976 10975 10975 10975 10974 10973 10972 10972 10971 10970 10969 10967 10965 10963 10962 10961 10961 10959 10957 10955 10954 10952 10950 10948 10947 10945 10943 10940 10937 10934 10933 10932 10931 10929 10927 10924 10922 10921 10919 10917 10915 10913 10911 10910 10908
10878 10883 10887 10892 10896 10901 10905 10908 10911 10914 10918 10922 10924 10928 10930 10930 10933 10937 10941 10945 10950 10954 10956 10957 10958 10959 10960 10961 10962 10964 10965 10967 10969 10970 10972 10973 10972 10973 10973 10973 10974 10974 10974 10973 10972 10971 10972 10972 10970 10969 10969 10968 10967 10966 10964 10962 10961 10959 10958 10957 10956 10955 10952 10951 10949 10947 10946 10945 10943 10941 10938 10935 10933 10931 10930 10929 10927 10925 10923 10920 10918 10917 10915 10913 10911 10909 10907 10905
10871 10875 10880 10885 10890 10895 10898 10901 10904 10908 10912 10915 10918 10921 10922 10923 10928 10932 10936 10941 10945 10948 10949 10951 10952 10953 10954 10956 10958 10960 10961 10962 10964 10965 10968 10969 10969 10969 10969 10969 10970 10970 10970 10970 10969 10967 10968 10968 10968 10966 10966 10965 10964 10962 10961 10960 10958 10957 10956 10955 10953 10952 10950 10948 10947 10945 10943 10942 10941 10939 10936 10933 10930 10928 10927 10926 10924 10922 10920 10917 10915 10913 10912 10911 10909 10906 10904 10902
10864 10868 10873 10879 10884 10888 10891 10894 10898 10901 10905 10909 10912 10913 10914 10918 10923 10927 10932 10936 10939 10941 10943 10944 10946 10947 10949 10951 10953 10956 10958 10959 10960 10961 10963 10964 10965 10965 10965 10965 10966 10966 10966 10966 10965 10963 10963 10964 10964 10963 10963 10962 10960 10958 10957 10956 10955 10955 10954 10952 10951 10949 10948 10946 10944 10943 10941 10939 10938 10936 10934 10930 10927 10925 10924 10922 10921 10919 10916 10913 10911 10910 10908 10907 10906 10904 10901 10899
10856 10861 10866 10872 10876 10881 10884 10888 10892 10895 10898 10902 10904 10905 10908 10913 10918 10922 10926 10929 10932 10934 10936 10937 10939 10941 10944 10946 10949 10953 10955 10955 10955 10956 10957 10958 10961 10961 10961 10961 10962 10962 10962 10961 10961 10959 10958 10958 10958 10958 10959 10959 10956 10954 10953 10952 10952 10952 10951 10949 10948 10947 10945 10944 10942 10940 10938 10936 10935 10933 10930 10928 10925 10922 10920 10919 10917 10915 10912 10910 10908 10906 10904 10903 10902 10900 10898 10896
10849 10854 10859 10864 10870 10875 10879 10882 10885 10888 10891 10895 10896 10898 10903 10907 10912 10916 10920 10922 10926 10928 10929 10931 10933 10935 10939 10942 10944 10948 10951 10951 10951 10952 10952 10952 10955 10957 10956 10956 10957 10958 10958 10957 10956 10955 10954 10954 10953 10953 10954 10954 10952 10951 10950 10949 10948 10948 10948 10946 10945 10943 10942 10941 10939 10938 10936 10934 10932 10929 10927 10924 10922 10920 10918 10916 10914 10912 10909 10907 10904 10902 10900 10899 10898 10896 10894 10893
10842 10847 10852 10858 10865 10869 10872 10875 10878 10881 10885 10887 10888 10891 10897 10901 10906 10911 10914 10916 10920 10922 10924 10925 10926 10929 10933 10936 10938 10942 10945 10945 10947 10948 10947 10948 10950 10951 10951 10952 10951 10953 10954 10952 10951 10951 10950 10950 10950 10950 10949 10949 10948 10947 10946 10945 10944 10944 10944 10943 10941 10939 10938 10937 10936 10934 10933 10932 10929 10926 10923 10921 10919 10917 10915 10913 10911 10908 10905 10903 10900 10898 10895 10894 10893 10892 10890 10888
10835 10840 10845 10852 10858 10861 10863 10867 10871 10874 10877 10878 10880 10885 10890 10895 10901 10905 10908 10910 10913 10916 10918 10920 10920 10923 10926 10929 10932 10936 10938 10940 10942 10943 10943 10945 10945 10945 10946 10947 10946 10947 10948 10947 10946 10946 10946 10945 10946 10947 10946 10944 10943 10943 10942 10941 10940 10940 10940 10939 10937 10935 10934 10933 10932 10930 10929 10928 10927 10924 10921 10917 10916 10914 10912 10909 10906 10903 10901 10898 10895 10893 10891 10889 10888 10887 10885 10883
10828 10833 10838 10844 10849 10852 10857 10861 10863 10867 10869 10869 10872 10878 10884 10890 10896 10899 10902 10905 10908 10910 10912 10913 10914 10916 10918 10921 10925 10929 10931 10934 10937 10938 10939 10940 10941 10942 10942 10942 10941 10940 10942 10941 10940 10940 10941 10940 10940 10942 10942 10940 10939 10937 10937 10937 10936 10935 10935 10934 10932 10931 10929 10928 10927 10926 10924 10923 10922 10921 10918 10914 10912 10911 10908 10905 10902 10899 10896 10893 10890 10888 10886 10884 10883 10881 10879 10877
10821 10824 10830 10837 10842 10846 10851 10854 10857 10860 10861 10861 10865 10873 10881 10887 10891 10893 10896 10899 10901 10903 10905 10906 10907 10909 10911 10914 10919 10922 10925 10929 10933 10934 10933 10935 10936 10937 10938 10938 10937 10936 10936 10936 10934 10933 10934 10936 10935 10936 10937 10937 10935 10933 10932 10932 10931 10930 10930 10929 10928 10927 10925 10923 10922 10921 10920 10918 10916 10915 10913 10909 10907 10906 10903 10901 10898 10894 10891 10888 10885 10883 10881 10879 10877 10875 10873 10870
10812 10816 10823 10830 10836 10841 10845 10847 10850 10852 10853 10855 10862 10870 10877 10881 10884 10886 10889 10891 10893 10895 10896 10898 10901 10903 10904 10909 10914 10916 10919 10923 10927 10928 10928 10929 10931 10932 10933 10932 10932 10933 10932 10931 10930 10927 10928 10930 10930 10929 10931 10932 10931 10929 10927 10926 10926 10925 10925 10925 10924 10922 10920 10919 10917 10916 10915 10913 10911 10910 10907 10904 10902 10901 10898 10895 10893 10889 10886 10883 10880 10878 10876 10873 10871 10869 10866 10863
10804 10809 10817 10823 10829 10833 10836 10838 10841 10844 10847 10852 10857 10862 10868 10872 10874 10878 10881 10883 10885 10887 10888 10890 10894 10895 10898 10903 10906 10908 10912 10916 10919 10921 10922 10923 10924 10925 10927 10927 10927 10928 10927 10926 10925 10921 10921 10924 10923 10923 10924 10926 10926 10925 10923 10921 10920 10919 10919 10919 10918 10917 10916 10914 10912 10911 10910 10909 10907 10905 10902 10899 10896 10894 10891 10889 10887 10884 10880 10877 10874 10872 10870 10868 10865 10862 10859 10856
10797 10803 10810 10815 10819 10823 10826 10830 10835 10838 10841 10845 10847 10850 10857 10862 10864 10869 10875 10876 10876 10878 10879 10883 10886 10888 10891 10895 10898 10901 10906 10909 10912 10915 10916 10916 10918 10919 10920 10921 10921 10921 10921 10920 10919 10915 10913 10915 10917 10917 10917 10918 10919 10920 10919 10917 10915 10914 10913 10913 10912 10911 10910 10908 10907 10906 10904 10903 10901 10899 10897 10894 10890 10887 10885 10883 10881 10878 10874 10871 10869 10866 10864 10861 10858 10856 10852 10849
10790 10795 10801 10806 10809 10813 10818 10824 10828 10830 10833 10837 10837 10840 10847 10852 10855 10862 10868 10869 10868 10868 10870 10876 10881 10882 10885 10888 10890 10894 10899 10903 10906 10909 10910 10910 10911 10913 10914 10914 10913 10914 10914 10914 10914 10911 10905 10906 10910 10911 10911 10911 10911 10912 10913 10912 10911 10910 10908 10907 10906 10905 10904 10902 10900 10899 10898 10897 10894 10890 10889 10888 10884 10880 10880 10878 10876 10873 10869 10865 10863 10860 10857 10854 10852 10849 10846 10843
10782 10787 10792 10796 10799 10805 10812 10817 10820 10823 10825 10828 10828 10831 10838 10843 10847 10855 10860 10862 10863 10860 10862 10871 10876 10876 10877 10881 10883 10887 10892 10896 10899 10902 10904 10904 10904 10906 10907 10907 10906 10907 10907 10907 10909 10906 10900 10898 10902 10904 10905 10905 10904 10904 10905 10906 10906 10905 10904 10902 10900 10899 10899 10897 10895 10893 10892 10892 10888 10883 10883 10881 10877 10875 10874 10871 10869 10867 10863 10859 10856 10853 10851 10849 10846 10843 10840 10837
10774 10778 10783 10787 10790 10797 10804 10809 10812 10814 10817 10819 10820 10824 10831 10836 10843 10851 10855 10858 10859 10855 10856 10864 10868 10868 10870 10873 10876 10880 10885 10889 10891 10894 10896 10896 10897 10899 10899 10899 10900 10901 10900 10900 10902 10902 10896 10892 10894 10897 10897 10898 10898 10897 10898 10898 10898 10898 10898 10897 10895 10894 10894 10893 10890 10888 10887 10886 10882 10877 10877 10874 10869 10868 10867 10864 10863 10861 10858 10855 10852 10849 10847 10844 10842 10839 10836 10832
10765 10769 10775 10779 10783 10788 10795 10800 10803 10806 10810 10812 10814 10818 10825 10830 10838 10844 10847 10850 10851 10849 10848 10853 10857 10860 10864 10867 10869 10873 10876 10879 10882 10885 10887 10888 10890 10891 10891 10892 10893 10893 10893 10894 10895 10896 10891 10886 10888 10890 10889 10891 10892 10892 10892 10891 10891 10890 10889 10889 10888 10887 10888 10887 10885 10883 10882 10880 10876 10873 10871 10867 10861 10860 10860 10857 10856 10855 10853 10851 10848 10846 10843 10841 10838 10835 10831 10826
10756 10761 10767 10772 10774 10779 10786 10792 10794 10798 10804 10806 10808 10812 10818 10823 10830 10834 10835 10837 10840 10841 10840 10842 10848 10853 10857 10860 10862 10864 10867 10870 10872 10876 10879 10881 10881 10882 10883 10883 10885 10886 10886 10887 10888 10888 10884 10882 10883 10883 10883 10885 10886 10885 10886 10885 10884 10883 10881 10880 10880 10881 10881 10880 10878 10877 10876 10874 10871 10868 10866 10860 10854 10853 10852 10849 10848 10848 10847 10845 10843 10840 10838 10836 10833 10830 10825 10820
10746 10752 10758 10763 10766 10769 10776 10782 10785 10791 10797 10799 10800 10804 10809 10814 10820 10823 10823 10825 10828 10832 10834 10836 10840 10845 10848 10851 10853 10855 10858 10861 10863 10866 10870 10871 10872 10874 10874 10874 10876 10878 10879 10879 10879 10880 10879 10877 10876 10876 10878 10879 10878 10878 10879 10879 10877 10876 10873 10872 10873 10874 10874 10872 10870 10869 10868 10867 10864 10862 10859 10854 10849 10846 10844 10841 10839 10839 10839 10838 10836 10833 10832 10830 10827 10823 10819 10814
10737 10743 10748 10753 10758 10761 10765 10772 10776 10783 10789 10792 10793 10796 10800 10804 10809 10812 10812 10814 10818 10823 10827 10829 10832 10835 10839 10842 10845 10848 10851 10852 10854 10855 10858 10860 10862 10864 10864 10865 10867 10868 10869 10871 10872 10873 10873 10870 10868 10870 10871 10871 10871 10872 10871 10872 10872 10868 10865 10865 10867 10867 10866 10865 10862 10860 10859 10859 10857 10855 10852 10849 10845 10841 10837 10834 10833 10831 10830 10828 10827 10825 10824 10822 10819 10815 10811 10807